Location: Newark
(7.0858°N, 171.3717°E)
Time: 04:41:35
(UTC+00:00)

Vanguard 2 - Pass Details

Date: 26 November 2020
Orbit: 553 x 2937 km, 32.9° (Epoch: 26 January)

Event Time Altitude Azimuth Distance (km) Brightness Sun altitude
Rises 03:47:43 0° 340° (NNW) 2,960 10.5 32.2°
Reaches altitude 10° 03:52:11 10° 21° (NNE) 2,401 9.8 31.2°
Maximum altitude 03:53:20 11° 33° (NNE) 2,465 9.8 31.0°
Drops below altitude 10° 03:54:34 10° 45° (NE) 2,627 9.8 30.7°
Sets 04:00:51 0° 81° (E) 4,245 10.8 29.4°
